sat.trackr.live / text

‹ back to catalog

FLOCK 4BE-32

NORAD 60497 · 2024-149AF

PAYLOAD ACTIVE UNKNOWN

§ Identity

Operator
Country
US
Launch date
2024-08-16
Launch site
AFWTR
Launch vehicle
Mass (kg)
RCS (m²)

Purposes: earth_obs

External: N2YO · Heavens-Above · Gunter

§ Orbital elements

Epoch: 2026-09-19T04:15:43.879680Z

Period
93.16 min
Inclination
97.3663°
Eccentricity
0.0002347
Mean motion
15.45669401 rev/d
Perigee alt
427.8 km
Apogee alt
431.0 km
Semi-major
6,807.5 km
B*
5.7145e-4
RAAN
347.3060°
Arg perigee
294.3567°
Mean anomaly
65.7437°
Rev number
11,683

§ Raw data

FLOCK 4BE-321 60497U 24149AF  26262.17759120  .00027534  00000+0  57145-3 0  99912 60497  97.3663 347.3060 0002347 294.3567  65.7437 15.45669401116839

JSON: /api/v1/satellites/60497 · /tle

For live sub-satellite position, see the globe view (requires WebGL).

§ Visibility from observer

Set your observer location to see the next 7 days of passes ≥ 10°. The values pass through the URL so the page stays shareable.

No JS? Fill the form by hand. The geolocation button needs JavaScript.